Time,TemperatureF,DewpointF,PressureIn,WindDirection,WindDirectionDegrees,WindSpeedMPH,WindSpeedGustMPH,Humidity,HourlyPrecipIn,Conditions,Clouds,dailyrainin,SoftwareType,DateUTC
2015-05-29 00:02:00,62.6,51.1,29.68,WNW,292,0.0,0.0,66,0.00,,---,0.00,VWS V15.00,2015-05-29 04:02:00,
2015-05-29 00:08:00,63.1,52.0,29.68,NW,315,3.6,3.6,67,0.00,,---,0.00,VWS V15.00,2015-05-29 04:08:00,
2015-05-29 00:14:00,64.2,52.6,29.68,NNE,22,0.9,3.4,66,0.00,,---,0.00,VWS V15.00,2015-05-29 04:14:00,
2015-05-29 00:19:00,64.8,52.3,29.68,WNW,292,3.1,8.1,64,0.00,,---,0.00,VWS V15.00,2015-05-29 04:19:00,
2015-05-29 00:24:00,65.5,52.6,29.68,SSW,202,3.1,4.7,63,0.00,,---,0.00,VWS V15.00,2015-05-29 04:24:00,
2015-05-29 00:30:00,65.8,52.5,29.68,East,90,2.9,2.9,62,0.00,,---,0.00,VWS V15.00,2015-05-29 04:30:00,
2015-05-29 00:36:00,66.0,52.2,29.68,WNW,292,2.9,4.0,61,0.00,,---,0.00,VWS V15.00,2015-05-29 04:36:00,
2015-05-29 00:42:00,66.4,51.2,29.68,NNW,338,0.9,4.7,58,0.00,,---,0.00,VWS V15.00,2015-05-29 04:42:00,
2015-05-29 00:47:00,66.4,51.2,29.68,SW,225,3.1,3.1,58,0.00,,---,0.00,VWS V15.00,2015-05-29 04:47:00,
2015-05-29 00:52:00,66.4,50.7,29.68,WSW,248,1.3,2.9,57,0.00,,---,0.00,VWS V15.00,2015-05-29 04:52:00,
2015-05-29 00:57:00,66.2,50.1,29.68,SW,225,2.9,3.4,56,0.00,,---,0.00,VWS V15.00,2015-05-29 04:57:00,
2015-05-29 01:03:00,66.2,50.1,29.68,NNE,22,1.6,5.8,56,0.00,,---,0.00,VWS V15.00,2015-05-29 05:03:00,
2015-05-29 01:08:00,66.0,50.4,29.71,WSW,248,2.9,2.9,57,0.00,,---,0.00,VWS V15.00,2015-05-29 05:08:00,
2015-05-29 01:13:00,65.8,50.2,29.71,East,90,2.7,2.7,57,0.00,,---,0.00,VWS V15.00,2015-05-29 05:13:00,
2015-05-29 01:18:00,65.7,50.0,29.71,ENE,68,0.0,1.3,57,0.00,,---,0.00,VWS V15.00,2015-05-29 05:18:00,
2015-05-29 01:24:00,65.5,49.9,29.71,ESE,112,1.3,2.7,57,0.00,,---,0.00,VWS V15.00,2015-05-29 05:24:00,
2015-05-29 01:29:00,65.5,49.9,29.71,SSE,158,1.6,1.6,57,0.00,,---,0.00,VWS V15.00,2015-05-29 05:29:00,
2015-05-29 01:34:00,65.5,49.9,29.71,SSW,202,0.9,1.6,57,0.00,,---,0.00,VWS V15.00,2015-05-29 05:34:00,
2015-05-29 01:39:00,65.5,50.3,29.71,WNW,292,0.9,1.3,58,0.00,,---,0.00,VWS V15.00,2015-05-29 05:39:00,
2015-05-29 01:45:00,65.7,49.6,29.71,West,270,2.7,5.8,56,0.00,,---,0.00,VWS V15.00,2015-05-29 05:45:00,
2015-05-29 01:50:00,65.7,49.6,29.71,SSE,158,2.9,3.8,56,0.00,,---,0.00,VWS V15.00,2015-05-29 05:50:00,
2015-05-29 01:55:00,65.8,49.7,29.71,WNW,292,2.7,3.1,56,0.00,,---,0.00,VWS V15.00,2015-05-29 05:55:00,
2015-05-29 02:00:00,65.8,49.2,29.71,WNW,292,2.7,5.4,55,0.00,,---,0.00,VWS V15.00,2015-05-29 06:00:00,
2015-05-29 02:06:00,65.7,49.1,29.71,SSE,158,2.9,3.8,55,0.00,,---,0.00,VWS V15.00,2015-05-29 06:06:00,
2015-05-29 02:11:00,65.7,49.1,29.71,SSE,158,1.6,2.2,55,0.00,,---,0.00,VWS V15.00,2015-05-29 06:11:00,
2015-05-29 02:16:00,65.7,49.1,29.71,SSE,158,0.0,1.1,55,0.00,,---,0.00,VWS V15.00,2015-05-29 06:16:00,
2015-05-29 02:21:00,65.7,49.1,29.71,SSE,158,0.0,0.0,55,0.00,,---,0.00,VWS V15.00,2015-05-29 06:21:00,
2015-05-29 02:26:00,65.7,49.1,29.71,WNW,292,0.0,0.9,55,0.00,,---,0.00,VWS V15.00,2015-05-29 06:26:00,
2015-05-29 02:32:00,65.7,49.1,29.71,WSW,248,2.2,2.2,55,0.00,,---,0.00,VWS V15.00,2015-05-29 06:32:00,
2015-05-29 02:37:00,63.7,49.1,29.71,WSW,248,0.0,0.0,59,0.00,,---,0.00,VWS V15.00,2015-05-29 06:37:00,
2015-05-29 02:42:00,63.1,49.0,29.71,West,270,0.0,0.0,60,0.00,,---,0.00,VWS V15.00,2015-05-29 06:42:00,
2015-05-29 02:48:00,62.6,49.0,29.71,West,270,1.3,2.7,61,0.00,,---,0.00,VWS V15.00,2015-05-29 06:48:00,
2015-05-29 02:53:00,62.4,49.7,29.71,WNW,292,0.0,2.2,63,0.00,,---,0.00,VWS V15.00,2015-05-29 06:53:00,
2015-05-29 02:58:00,63.3,50.1,29.71,WSW,248,0.0,0.0,62,0.00,,---,0.00,VWS V15.00,2015-05-29 06:58:00,
2015-05-29 03:03:00,63.3,49.7,29.71,WNW,292,0.9,2.0,61,0.00,,---,0.00,VWS V15.00,2015-05-29 07:03:00,
2015-05-29 03:09:00,63.5,49.8,29.71,WSW,248,0.0,1.6,61,0.00,,---,0.00,VWS V15.00,2015-05-29 07:09:00,
2015-05-29 03:14:00,63.1,49.5,29.71,SW,225,1.6,2.5,61,0.00,,---,0.00,VWS V15.00,2015-05-29 07:14:00,
2015-05-29 03:19:00,63.0,49.3,29.71,SW,225,0.0,0.0,61,0.00,,---,0.00,VWS V15.00,2015-05-29 07:19:00,
2015-05-29 03:24:00,62.6,49.4,29.71,SW,225,0.0,0.0,62,0.00,,---,0.00,VWS V15.00,2015-05-29 07:24:00,
2015-05-29 03:30:00,61.9,49.2,29.71,SW,225,0.0,0.0,63,0.00,,---,0.00,VWS V15.00,2015-05-29 07:30:00,
2015-05-29 03:35:00,61.5,48.8,29.71,SW,225,0.0,0.0,63,0.00,,---,0.00,VWS V15.00,2015-05-29 07:35:00,
2015-05-29 03:41:00,61.0,48.7,29.74,SW,225,0.0,0.0,64,0.00,,---,0.00,VWS V15.00,2015-05-29 07:41:00,
2015-05-29 03:46:00,60.6,48.8,29.74,WSW,248,1.3,2.7,65,0.00,,---,0.00,VWS V15.00,2015-05-29 07:46:00,
2015-05-29 03:51:00,60.6,50.0,29.74,SW,225,0.0,0.0,68,0.00,,---,0.00,VWS V15.00,2015-05-29 07:51:00,
2015-05-29 03:56:00,60.8,49.4,29.71,NE,45,1.6,1.6,66,0.00,,---,0.00,VWS V15.00,2015-05-29 07:56:00,
2015-05-29 04:01:00,61.0,49.5,29.71,WSW,248,0.0,1.3,66,0.00,,---,0.00,VWS V15.00,2015-05-29 08:01:00,
2015-05-29 04:06:00,61.0,49.5,29.74,WSW,248,0.0,1.3,66,0.00,,---,0.00,VWS V15.00,2015-05-29 08:06:00,
2015-05-29 04:13:00,60.6,49.6,29.74,West,270,0.0,0.0,67,0.00,,---,0.00,VWS V15.00,2015-05-29 08:13:00,
2015-05-29 04:19:00,60.3,49.3,29.74,SSW,202,1.1,2.0,67,0.00,,---,0.00,VWS V15.00,2015-05-29 08:19:00,
2015-05-29 04:24:00,60.4,49.4,29.74,SW,225,1.3,2.9,67,0.00,,---,0.00,VWS V15.00,2015-05-29 08:24:00,
2015-05-29 04:29:00,60.4,49.4,29.74,SW,225,1.6,1.6,67,0.00,,---,0.00,VWS V15.00,2015-05-29 08:29:00,
2015-05-29 04:34:00,60.6,49.6,29.74,SSW,202,0.0,2.2,67,0.00,,---,0.00,VWS V15.00,2015-05-29 08:34:00,
2015-05-29 04:40:00,61.0,50.0,29.74,West,270,1.6,1.6,67,0.00,,---,0.00,VWS V15.00,2015-05-29 08:40:00,
2015-05-29 04:45:00,60.8,49.8,29.74,ESE,112,0.0,0.0,67,0.00,,---,0.00,VWS V15.00,2015-05-29 08:45:00,
2015-05-29 04:50:00,60.6,49.6,29.74,WNW,292,0.0,3.4,67,0.00,,---,0.00,VWS V15.00,2015-05-29 08:50:00,
2015-05-29 04:55:00,60.8,49.4,29.74,NW,315,1.3,2.0,66,0.00,,---,0.00,VWS V15.00,2015-05-29 08:55:00,
2015-05-29 05:01:00,61.3,49.9,29.74,WNW,292,2.0,4.0,66,0.00,,---,0.00,VWS V15.00,2015-05-29 09:01:00,
2015-05-29 05:06:00,61.5,50.1,29.74,SW,225,1.3,2.9,66,0.00,,---,0.00,VWS V15.00,2015-05-29 09:06:00,
2015-05-29 05:11:00,61.7,49.8,29.74,NNW,338,2.9,2.9,65,0.00,,---,0.00,VWS V15.00,2015-05-29 09:11:00,
2015-05-29 05:16:00,61.7,49.8,29.74,NNW,338,2.0,6.3,65,0.00,,---,0.00,VWS V15.00,2015-05-29 09:16:00,
2015-05-29 05:22:00,61.7,49.4,29.74,SW,225,2.0,2.5,64,0.00,,---,0.00,VWS V15.00,2015-05-29 09:22:00,
2015-05-29 05:27:00,61.7,49.4,29.74,NNW,338,0.0,0.9,64,0.00,,---,0.00,VWS V15.00,2015-05-29 09:27:00,
2015-05-29 05:32:00,61.7,49.4,29.74,NNE,22,0.0,0.0,64,0.00,,---,0.00,VWS V15.00,2015-05-29 09:32:00,
2015-05-29 05:38:00,61.5,49.2,29.76,WSW,248,2.2,2.9,64,0.00,,---,0.00,VWS V15.00,2015-05-29 09:38:00,
2015-05-29 05:43:00,61.3,49.1,29.76,SW,225,1.3,3.8,64,0.00,,---,0.00,VWS V15.00,2015-05-29 09:43:00,
2015-05-29 05:48:00,61.5,49.2,29.76,SE,135,1.1,2.0,64,0.00,,---,0.00,VWS V15.00,2015-05-29 09:48:00,
2015-05-29 05:53:00,61.3,49.1,29.76,WSW,248,0.0,0.0,64,0.00,,---,0.00,VWS V15.00,2015-05-29 09:53:00,
2015-05-29 05:58:00,61.0,48.7,29.76,WSW,248,0.0,0.0,64,0.00,,---,0.00,VWS V15.00,2015-05-29 09:58:00,
2015-05-29 06:04:00,60.6,49.2,29.76,WSW,248,0.0,0.0,66,0.00,,---,0.00,VWS V15.00,2015-05-29 10:04:00,
2015-05-29 06:09:00,60.1,48.7,29.76,WSW,248,0.0,0.0,66,0.00,,---,0.00,VWS V15.00,2015-05-29 10:09:00,
2015-05-29 06:14:00,59.9,48.5,29.76,WSW,248,0.0,0.0,66,0.00,,---,0.00,VWS V15.00,2015-05-29 10:14:00,
2015-05-29 06:19:00,59.5,48.6,29.76,WSW,248,0.0,0.0,67,0.00,,---,0.00,VWS V15.00,2015-05-29 10:19:00,
2015-05-29 06:25:00,59.4,48.8,29.76,WSW,248,0.0,0.0,68,0.00,,---,0.00,VWS V15.00,2015-05-29 10:25:00,
2015-05-29 06:31:00,59.0,48.9,29.76,WSW,248,0.0,0.0,69,0.00,,---,0.00,VWS V15.00,2015-05-29 10:31:00,
2015-05-29 06:36:00,59.0,48.9,29.76,WSW,248,0.0,0.0,69,0.00,,---,0.00,VWS V15.00,2015-05-29 10:36:00,
2015-05-29 06:42:00,59.0,49.2,29.79,WSW,248,0.0,0.0,70,0.00,,---,0.00,VWS V15.00,2015-05-29 10:42:00,
2015-05-29 06:48:00,59.2,49.8,29.79,WSW,248,0.0,0.0,71,0.00,,---,0.00,VWS V15.00,2015-05-29 10:48:00,
2015-05-29 06:54:00,59.4,50.0,29.76,WSW,248,0.0,0.0,71,0.00,,---,0.00,VWS V15.00,2015-05-29 10:54:00,
2015-05-29 07:00:00,59.4,50.3,29.76,WSW,248,0.0,0.0,72,0.00,,---,0.00,VWS V15.00,2015-05-29 11:00:00,
2015-05-29 07:05:00,59.5,50.5,29.76,WSW,248,0.0,0.0,72,0.00,,---,0.00,VWS V15.00,2015-05-29 11:05:00,
2015-05-29 07:10:00,59.9,50.9,29.76,WSW,248,0.0,0.0,72,0.00,,---,0.00,VWS V15.00,2015-05-29 11:10:00,
2015-05-29 07:15:00,60.1,51.0,29.76,WSW,248,0.0,0.0,72,0.00,,---,0.00,VWS V15.00,2015-05-29 11:15:00,
2015-05-29 07:21:00,60.6,51.6,29.76,WSW,248,0.0,0.0,72,0.00,,---,0.00,VWS V15.00,2015-05-29 11:21:00,
2015-05-29 07:26:00,61.2,52.1,29.76,WSW,248,0.0,0.0,72,0.00,,---,0.00,VWS V15.00,2015-05-29 11:26:00,
2015-05-29 07:31:00,61.7,52.2,29.76,East,90,1.6,1.6,71,0.00,,---,0.00,VWS V15.00,2015-05-29 11:31:00,
2015-05-29 07:37:00,62.4,52.9,29.79,ESE,112,0.0,0.0,71,0.00,,---,0.00,VWS V15.00,2015-05-29 11:37:00,
2015-05-29 07:42:00,63.0,53.0,29.79,East,90,0.0,0.0,70,0.00,,---,0.00,VWS V15.00,2015-05-29 11:42:00,
2015-05-29 07:47:00,63.5,53.5,29.79,East,90,0.0,0.0,70,0.00,,---,0.00,VWS V15.00,2015-05-29 11:47:00,
2015-05-29 07:52:00,63.9,53.9,29.76,ENE,68,0.0,0.0,70,0.00,,---,0.00,VWS V15.00,2015-05-29 11:52:00,
2015-05-29 07:57:00,64.2,53.8,29.76,ENE,68,0.0,0.0,69,0.00,,---,0.00,VWS V15.00,2015-05-29 11:57:00,
2015-05-29 08:03:00,64.8,54.0,29.76,SSE,158,0.0,0.0,68,0.00,,---,0.00,VWS V15.00,2015-05-29 12:03:00,
2015-05-29 08:08:00,65.3,54.5,29.79,SSE,158,0.0,0.0,68,0.00,,---,0.00,VWS V15.00,2015-05-29 12:08:00,
2015-05-29 08:13:00,65.7,54.4,29.79,ENE,68,0.0,0.0,67,0.00,,---,0.00,VWS V15.00,2015-05-29 12:13:00,
2015-05-29 08:19:00,66.4,53.4,29.79,NW,315,0.0,1.1,63,0.00,,---,0.00,VWS V15.00,2015-05-29 12:19:00,
2015-05-29 08:25:00,66.7,54.2,29.76,NNE,22,0.0,0.0,64,0.00,,---,0.00,VWS V15.00,2015-05-29 12:25:00,
2015-05-29 08:30:00,67.1,53.7,29.76,NNE,22,0.0,0.0,62,0.00,,---,0.00,VWS V15.00,2015-05-29 12:30:00,
2015-05-29 08:36:00,67.5,53.1,29.76,NNW,338,1.1,2.5,60,0.00,,---,0.00,VWS V15.00,2015-05-29 12:36:00,
2015-05-29 08:41:00,67.8,53.4,29.76,ENE,68,2.0,2.0,60,0.00,,---,0.00,VWS V15.00,2015-05-29 12:41:00,
2015-05-29 08:46:00,68.0,52.2,29.76,SSW,202,0.0,1.3,57,0.00,,---,0.00,VWS V15.00,2015-05-29 12:46:00,
2015-05-29 08:52:00,68.5,52.2,29.76,North,0,1.1,2.5,56,0.00,,---,0.00,VWS V15.00,2015-05-29 12:52:00,
2015-05-29 08:57:00,69.1,52.2,29.76,SSW,202,2.9,3.6,55,0.00,,---,0.00,VWS V15.00,2015-05-29 12:57:00,
2015-05-29 09:02:00,69.3,52.4,29.76,SE,135,0.0,4.0,55,0.00,,---,0.00,VWS V15.00,2015-05-29 13:02:00,
2015-05-29 09:07:00,69.6,52.8,29.76,ESE,112,0.0,2.5,55,0.00,,---,0.00,VWS V15.00,2015-05-29 13:07:00,
2015-05-29 09:13:00,70.0,52.1,29.76,SW,225,0.9,2.9,53,0.00,,---,0.00,VWS V15.00,2015-05-29 13:13:00,
2015-05-29 09:19:00,70.3,52.4,29.76,NE,45,1.6,2.9,53,0.00,,---,0.00,VWS V15.00,2015-05-29 13:19:00,
2015-05-29 09:24:00,70.7,52.8,29.76,ESE,112,3.4,3.8,53,0.00,,---,0.00,VWS V15.00,2015-05-29 13:24:00,
2015-05-29 09:29:00,70.9,52.4,29.76,NNE,22,1.1,1.6,52,0.00,,---,0.00,VWS V15.00,2015-05-29 13:29:00,
2015-05-29 09:34:00,70.9,50.8,29.76,South,180,0.0,0.0,49,0.00,,---,0.00,VWS V15.00,2015-05-29 13:34:00,
2015-05-29 09:39:00,71.2,51.7,29.76,ESE,112,3.1,4.3,50,0.00,,---,0.00,VWS V15.00,2015-05-29 13:39:00,
2015-05-29 09:44:00,71.6,51.5,29.76,SW,225,1.1,2.2,49,0.00,,---,0.00,VWS V15.00,2015-05-29 13:44:00,
2015-05-29 09:49:00,72.0,51.8,29.76,SSE,158,2.5,2.5,49,0.00,,---,0.00,VWS V15.00,2015-05-29 13:49:00,
2015-05-29 09:55:00,72.3,51.0,29.76,NNW,338,2.5,2.5,47,0.00,,---,0.00,VWS V15.00,2015-05-29 13:55:00,
2015-05-29 10:00:00,72.5,51.2,29.76,WNW,292,0.0,2.7,47,0.00,,---,0.00,VWS V15.00,2015-05-29 14:00:00,
2015-05-29 10:05:00,72.9,51.5,29.76,ENE,68,1.1,1.3,47,0.00,,---,0.00,VWS V15.00,2015-05-29 14:05:00,
2015-05-29 10:11:00,73.2,51.8,29.76,NE,45,1.1,2.0,47,0.00,,---,0.00,VWS V15.00,2015-05-29 14:11:00,
2015-05-29 10:16:00,73.4,51.4,29.76,WSW,248,2.5,2.5,46,0.00,,---,0.00,VWS V15.00,2015-05-29 14:16:00,
2015-05-29 10:21:00,73.8,51.7,29.74,NE,45,0.0,1.1,46,0.00,,---,0.00,VWS V15.00,2015-05-29 14:21:00,
2015-05-29 10:26:00,74.1,51.4,29.74,NNW,338,1.6,2.7,45,0.00,,---,0.00,VWS V15.00,2015-05-29 14:26:00,
2015-05-29 10:31:00,74.3,51.0,29.74,West,270,2.5,2.5,44,0.00,,---,0.00,VWS V15.00,2015-05-29 14:31:00,
2015-05-29 10:37:00,74.8,50.9,29.74,ESE,112,4.3,4.3,43,0.00,,---,0.00,VWS V15.00,2015-05-29 14:37:00,
2015-05-29 10:42:00,74.8,50.9,29.74,ESE,112,3.4,3.4,43,0.00,,---,0.00,VWS V15.00,2015-05-29 14:42:00,
2015-05-29 10:47:00,75.0,50.4,29.74,NNE,22,2.5,2.5,42,0.00,,---,0.00,VWS V15.00,2015-05-29 14:47:00,
2015-05-29 10:52:00,75.2,49.9,29.74,NE,45,0.9,1.3,41,0.00,,---,0.00,VWS V15.00,2015-05-29 14:52:00,
2015-05-29 10:58:00,75.7,51.0,29.74,ENE,68,3.4,3.4,42,0.00,,---,0.00,VWS V15.00,2015-05-29 14:58:00,
2015-05-29 11:04:00,75.9,50.5,29.74,NNE,22,3.6,4.9,41,0.00,,---,0.00,VWS V15.00,2015-05-29 15:04:00,
2015-05-29 11:09:00,76.1,51.4,29.74,West,270,2.9,3.6,42,0.00,,---,0.00,VWS V15.00,2015-05-29 15:09:00,
2015-05-29 11:14:00,76.1,50.7,29.74,ESE,112,1.1,3.1,41,0.00,,---,0.00,VWS V15.00,2015-05-29 15:14:00,
2015-05-29 11:19:00,75.9,49.2,29.74,WSW,248,1.6,4.3,39,0.00,,---,0.00,VWS V15.00,2015-05-29 15:19:00,
2015-05-29 11:24:00,76.1,50.7,29.74,SSW,202,1.6,3.1,41,0.00,,---,0.00,VWS V15.00,2015-05-29 15:24:00,
2015-05-29 11:29:00,76.3,50.2,29.74,NNE,22,1.3,3.8,40,0.00,,---,0.00,VWS V15.00,2015-05-29 15:29:00,
2015-05-29 11:34:00,76.6,51.2,29.74,NNE,22,0.0,2.0,41,0.00,,---,0.00,VWS V15.00,2015-05-29 15:34:00,
2015-05-29 11:40:00,77.0,50.9,29.74,ESE,112,0.9,3.6,40,0.00,,---,0.00,VWS V15.00,2015-05-29 15:40:00,
2015-05-29 11:45:00,77.2,51.0,29.74,ESE,112,2.7,4.9,40,0.00,,---,0.00,VWS V15.00,2015-05-29 15:45:00,
2015-05-29 11:50:00,77.5,51.3,29.74,ENE,68,2.2,2.2,40,0.00,,---,0.00,VWS V15.00,2015-05-29 15:50:00,
2015-05-29 11:55:00,77.5,51.3,29.74,West,270,2.9,2.9,40,0.00,,---,0.00,VWS V15.00,2015-05-29 15:55:00,
2015-05-29 12:01:00,77.5,51.3,29.74,South,180,1.6,2.5,40,0.00,,---,0.00,VWS V15.00,2015-05-29 16:01:00,
2015-05-29 12:06:00,77.7,50.1,29.74,NE,45,3.1,6.0,38,0.00,,---,0.00,VWS V15.00,2015-05-29 16:06:00,
2015-05-29 12:12:00,77.9,50.3,29.74,ENE,68,2.7,2.7,38,0.00,,---,0.00,VWS V15.00,2015-05-29 16:12:00,
2015-05-29 12:17:00,78.1,50.4,29.74,WNW,292,2.9,2.9,38,0.00,,---,0.00,VWS V15.00,2015-05-29 16:17:00,
2015-05-29 12:22:00,78.3,50.6,29.71,WNW,292,2.5,2.5,38,0.00,,---,0.00,VWS V15.00,2015-05-29 16:22:00,
2015-05-29 12:27:00,78.6,50.9,29.71,ESE,112,2.7,3.4,38,0.00,,---,0.00,VWS V15.00,2015-05-29 16:27:00,
2015-05-29 12:33:00,79.2,50.7,29.71,North,0,2.5,2.5,37,0.00,,---,0.00,VWS V15.00,2015-05-29 16:33:00,
2015-05-29 12:38:00,79.3,50.1,29.71,NE,45,5.8,5.8,36,0.00,,---,0.00,VWS V15.00,2015-05-29 16:38:00,
2015-05-29 12:43:00,79.5,51.0,29.71,NNE,22,3.1,3.4,37,0.00,,---,0.00,VWS V15.00,2015-05-29 16:43:00,
2015-05-29 12:48:00,79.9,51.3,29.71,NNE,22,2.5,2.5,37,0.00,,---,0.00,VWS V15.00,2015-05-29 16:48:00,
2015-05-29 12:53:00,79.9,49.8,29.71,SSW,202,2.5,2.5,35,0.00,,---,0.00,VWS V15.00,2015-05-29 16:53:00,
2015-05-29 12:59:00,79.3,50.1,29.71,NNE,22,2.0,2.9,36,0.00,,---,0.00,VWS V15.00,2015-05-29 16:59:00,
2015-05-29 13:05:00,79.3,50.8,29.71,ENE,68,2.9,3.1,37,0.00,,---,0.00,VWS V15.00,2015-05-29 17:05:00,
2015-05-29 13:11:00,80.1,51.5,29.71,SSE,158,3.4,4.7,37,0.00,,---,0.00,VWS V15.00,2015-05-29 17:11:00,
2015-05-29 13:16:00,80.1,50.7,29.71,ESE,112,2.0,4.0,36,0.00,,---,0.00,VWS V15.00,2015-05-29 17:16:00,
2015-05-29 13:21:00,80.4,50.3,29.71,NE,45,3.4,3.6,35,0.00,,---,0.00,VWS V15.00,2015-05-29 17:21:00,
2015-05-29 13:26:00,81.0,51.5,29.71,NNE,22,1.3,2.7,36,0.00,,---,0.00,VWS V15.00,2015-05-29 17:26:00,
2015-05-29 13:32:00,81.3,51.8,29.71,ENE,68,2.0,2.5,36,0.00,,---,0.00,VWS V15.00,2015-05-29 17:32:00,
2015-05-29 13:38:00,81.5,50.5,29.71,ENE,68,3.8,3.8,34,0.00,,---,0.00,VWS V15.00,2015-05-29 17:38:00,
2015-05-29 13:43:00,81.5,49.7,29.71,NE,45,5.8,5.8,33,0.00,,---,0.00,VWS V15.00,2015-05-29 17:43:00,
2015-05-29 13:48:00,81.7,51.4,29.71,West,270,2.7,2.7,35,0.00,,---,0.00,VWS V15.00,2015-05-29 17:48:00,
2015-05-29 13:53:00,82.2,51.1,29.71,WNW,292,2.0,2.7,34,0.00,,---,0.00,VWS V15.00,2015-05-29 17:53:00,
2015-05-29 13:58:00,82.4,50.4,29.71,NE,45,5.4,5.6,33,0.00,,---,0.00,VWS V15.00,2015-05-29 17:58:00,
2015-05-29 14:03:00,81.9,50.0,29.71,NNE,22,1.1,2.2,33,0.00,,---,0.00,VWS V15.00,2015-05-29 18:03:00,
2015-05-29 14:08:00,81.7,49.8,29.68,ENE,68,3.4,6.5,33,0.00,,---,0.00,VWS V15.00,2015-05-29 18:08:00,
2015-05-29 14:14:00,81.9,50.0,29.68,SW,225,1.1,4.0,33,0.00,,---,0.00,VWS V15.00,2015-05-29 18:14:00,
2015-05-29 14:19:00,81.7,49.8,29.68,East,90,2.9,2.9,33,0.00,,---,0.00,VWS V15.00,2015-05-29 18:19:00,
2015-05-29 14:24:00,82.2,51.1,29.68,NNE,22,2.2,4.7,34,0.00,,---,0.00,VWS V15.00,2015-05-29 18:24:00,
2015-05-29 14:29:00,82.8,51.6,29.68,West,270,1.3,2.5,34,0.00,,---,0.00,VWS V15.00,2015-05-29 18:29:00,
2015-05-29 14:35:00,83.3,52.0,29.68,SSW,202,2.5,2.5,34,0.00,,---,0.00,VWS V15.00,2015-05-29 18:35:00,
2015-05-29 14:40:00,83.5,51.4,29.68,NNW,338,4.3,4.3,33,0.00,,---,0.00,VWS V15.00,2015-05-29 18:40:00,
2015-05-29 14:45:00,83.7,51.5,29.68,ESE,112,2.0,3.6,33,0.00,,---,0.00,VWS V15.00,2015-05-29 18:45:00,
2015-05-29 14:51:00,83.8,51.7,29.68,ENE,68,5.8,5.8,33,0.00,,---,0.00,VWS V15.00,2015-05-29 18:51:00,
2015-05-29 14:56:00,83.7,50.7,29.68,ENE,68,2.5,2.9,32,0.00,,---,0.00,VWS V15.00,2015-05-29 18:56:00,
2015-05-29 15:01:00,84.0,51.0,29.68,NNE,22,2.5,4.0,32,0.00,,---,0.00,VWS V15.00,2015-05-29 19:01:00,
2015-05-29 15:06:00,84.4,52.2,29.68,NNW,338,2.2,2.5,33,0.00,,---,0.00,VWS V15.00,2015-05-29 19:06:00,
2015-05-29 15:11:00,84.7,52.5,29.68,SW,225,2.9,2.9,33,0.00,,---,0.00,VWS V15.00,2015-05-29 19:11:00,
2015-05-29 15:17:00,84.9,52.6,29.68,NE,45,2.7,3.6,33,0.00,,---,0.00,VWS V15.00,2015-05-29 19:17:00,
2015-05-29 15:22:00,84.7,51.6,29.68,ESE,112,1.6,3.6,32,0.00,,---,0.00,VWS V15.00,2015-05-29 19:22:00,
2015-05-29 15:28:00,84.9,51.8,29.68,ESE,112,3.6,4.0,32,0.00,,---,0.00,VWS V15.00,2015-05-29 19:28:00,
2015-05-29 15:33:00,84.7,51.6,29.68,ENE,68,1.6,2.5,32,0.00,,---,0.00,VWS V15.00,2015-05-29 19:33:00,
2015-05-29 15:38:00,84.6,50.6,29.68,NE,45,2.0,2.9,31,0.00,,---,0.00,VWS V15.00,2015-05-29 19:38:00,
2015-05-29 15:44:00,84.6,50.6,29.68,ENE,68,1.3,4.7,31,0.00,,---,0.00,VWS V15.00,2015-05-29 19:44:00,
2015-05-29 15:49:00,84.7,51.6,29.68,SSW,202,0.9,2.0,32,0.00,,---,0.00,VWS V15.00,2015-05-29 19:49:00,
2015-05-29 15:54:00,84.7,50.8,29.65,West,270,2.5,3.4,31,0.00,,---,0.00,VWS V15.00,2015-05-29 19:54:00,
2015-05-29 15:59:00,84.7,51.6,29.65,ENE,68,2.0,3.6,32,0.00,,---,0.00,VWS V15.00,2015-05-29 19:59:00,
2015-05-29 16:04:00,84.6,51.5,29.65,ENE,68,3.1,3.1,32,0.00,,---,0.00,VWS V15.00,2015-05-29 20:04:00,
2015-05-29 16:09:00,84.4,51.3,29.68,SSW,202,0.0,1.6,32,0.00,,---,0.00,VWS V15.00,2015-05-29 20:09:00,
2015-05-29 16:14:00,84.4,51.3,29.68,NNW,338,2.7,2.7,32,0.00,,---,0.00,VWS V15.00,2015-05-29 20:14:00,
2015-05-29 16:20:00,83.3,50.4,29.68,WSW,248,2.5,2.7,32,0.00,,---,0.00,VWS V15.00,2015-05-29 20:20:00,
2015-05-29 16:25:00,82.6,50.6,29.68,NNW,338,3.4,3.4,33,0.00,,---,0.00,VWS V15.00,2015-05-29 20:25:00,
2015-05-29 16:30:00,82.8,50.8,29.68,North,0,2.0,2.9,33,0.00,,---,0.00,VWS V15.00,2015-05-29 20:30:00,
2015-05-29 16:35:00,82.9,50.1,29.68,East,90,2.5,4.0,32,0.00,,---,0.00,VWS V15.00,2015-05-29 20:35:00,
2015-05-29 16:41:00,82.0,50.1,29.68,ESE,112,0.0,1.6,33,0.00,,---,0.00,VWS V15.00,2015-05-29 20:41:00,
2015-05-29 16:46:00,81.1,49.3,29.68,ENE,68,0.0,0.0,33,0.00,,---,0.00,VWS V15.00,2015-05-29 20:46:00,
2015-05-29 16:51:00,80.6,48.9,29.68,WNW,292,0.0,1.6,33,0.00,,---,0.00,VWS V15.00,2015-05-29 20:51:00,
2015-05-29 16:56:00,80.8,49.8,29.68,ENE,68,0.0,1.3,34,0.00,,---,0.00,VWS V15.00,2015-05-29 20:56:00,
2015-05-29 17:02:00,80.4,50.3,29.68,NNE,22,1.1,2.5,35,0.00,,---,0.00,VWS V15.00,2015-05-29 21:02:00,
2015-05-29 17:07:00,80.1,50.0,29.65,ENE,68,0.0,0.0,35,0.00,,---,0.00,VWS V15.00,2015-05-29 21:07:00,
2015-05-29 17:12:00,79.9,49.8,29.65,East,90,0.0,2.0,35,0.00,,---,0.00,VWS V15.00,2015-05-29 21:12:00,
2015-05-29 17:17:00,80.4,51.0,29.65,ENE,68,1.3,2.0,36,0.00,,---,0.00,VWS V15.00,2015-05-29 21:17:00,
2015-05-29 17:23:00,80.2,50.1,29.65,NNE,22,0.0,2.2,35,0.00,,---,0.00,VWS V15.00,2015-05-29 21:23:00,
2015-05-29 17:28:00,80.2,50.9,29.65,WNW,292,0.0,0.0,36,0.00,,---,0.00,VWS V15.00,2015-05-29 21:28:00,
2015-05-29 17:34:00,80.1,50.0,29.65,SSW,202,1.1,1.3,35,0.00,,---,0.00,VWS V15.00,2015-05-29 21:34:00,
2015-05-29 17:39:00,79.7,49.7,29.65,SSW,202,0.0,1.3,35,0.00,,---,0.00,VWS V15.00,2015-05-29 21:39:00,
2015-05-29 17:44:00,79.5,50.2,29.65,SW,225,1.3,2.0,36,0.00,,---,0.00,VWS V15.00,2015-05-29 21:44:00,
2015-05-29 17:50:00,79.9,49.8,29.65,West,270,1.1,1.1,35,0.00,,---,0.00,VWS V15.00,2015-05-29 21:50:00,
2015-05-29 17:55:00,80.4,50.3,29.65,NNE,22,1.6,1.6,35,0.00,,---,0.00,VWS V15.00,2015-05-29 21:55:00,
2015-05-29 18:00:00,80.8,50.6,29.65,SSW,202,4.7,4.7,35,0.00,,---,0.00,VWS V15.00,2015-05-29 22:00:00,
2015-05-29 18:05:00,80.6,49.7,29.65,WNW,292,0.0,1.3,34,0.00,,---,0.00,VWS V15.00,2015-05-29 22:05:00,
2015-05-29 18:10:00,80.8,50.6,29.62,NE,45,3.1,3.1,35,0.00,,---,0.00,VWS V15.00,2015-05-29 22:10:00,
2015-05-29 18:15:00,80.8,49.8,29.62,East,90,2.9,2.9,34,0.00,,---,0.00,VWS V15.00,2015-05-29 22:15:00,
2015-05-29 18:20:00,80.8,49.8,29.62,SSW,202,1.3,5.4,34,0.00,,---,0.00,VWS V15.00,2015-05-29 22:20:00,
2015-05-29 18:26:00,80.6,50.5,29.62,East,90,2.0,2.0,35,0.00,,---,0.00,VWS V15.00,2015-05-29 22:26:00,
2015-05-29 18:31:00,80.1,50.7,29.62,ENE,68,3.1,3.1,36,0.00,,---,0.00,VWS V15.00,2015-05-29 22:31:00,
2015-05-29 18:36:00,79.7,50.4,29.62,East,90,3.4,3.4,36,0.00,,---,0.00,VWS V15.00,2015-05-29 22:36:00,
2015-05-29 18:42:00,79.0,50.5,29.62,ENE,68,1.3,1.3,37,0.00,,---,0.00,VWS V15.00,2015-05-29 22:42:00,
2015-05-29 18:48:00,78.4,52.1,29.62,NE,45,0.0,0.0,40,0.00,,---,0.00,VWS V15.00,2015-05-29 22:48:00,
2015-05-29 18:54:00,77.5,52.0,29.62,ENE,68,0.0,1.6,41,0.00,,---,0.00,VWS V15.00,2015-05-29 22:54:00,
2015-05-29 18:59:00,77.2,51.7,29.62,South,180,1.3,1.3,41,0.00,,---,0.00,VWS V15.00,2015-05-29 22:59:00,
2015-05-29 19:04:00,76.6,51.8,29.62,ENE,68,1.6,2.5,42,0.00,,---,0.00,VWS V15.00,2015-05-29 23:04:00,
2015-05-29 19:09:00,76.3,51.5,29.65,East,90,0.0,1.6,42,0.00,,---,0.00,VWS V15.00,2015-05-29 23:09:00,
2015-05-29 19:15:00,75.7,51.7,29.65,ENE,68,0.0,1.1,43,0.00,,---,0.00,VWS V15.00,2015-05-29 23:15:00,
2015-05-29 19:20:00,75.4,51.3,29.65,ESE,112,0.0,2.2,43,0.00,,---,0.00,VWS V15.00,2015-05-29 23:20:00,
2015-05-29 19:25:00,75.0,51.7,29.65,SSW,202,0.9,0.9,44,0.00,,---,0.00,VWS V15.00,2015-05-29 23:25:00,
2015-05-29 19:31:00,74.3,51.0,29.65,ENE,68,1.3,1.3,44,0.00,,---,0.00,VWS V15.00,2015-05-29 23:31:00,
2015-05-29 19:36:00,73.9,51.3,29.65,ENE,68,0.0,0.0,45,0.00,,---,0.00,VWS V15.00,2015-05-29 23:36:00,
2015-05-29 19:41:00,73.4,50.8,29.65,ENE,68,0.0,0.9,45,0.00,,---,0.00,VWS V15.00,2015-05-29 23:41:00,
2015-05-29 19:46:00,72.9,50.9,29.65,WSW,248,2.5,2.7,46,0.00,,---,0.00,VWS V15.00,2015-05-29 23:46:00,
2015-05-29 19:51:00,72.5,50.6,29.65,SSW,202,1.6,1.6,46,0.00,,---,0.00,VWS V15.00,2015-05-29 23:51:00,
2015-05-29 19:57:00,72.0,50.7,29.65,East,90,0.0,0.0,47,0.00,,---,0.00,VWS V15.00,2015-05-29 23:57:00,
2015-05-29 20:02:00,71.6,50.3,29.65,East,90,1.1,2.5,47,0.00,,---,0.00,VWS V15.00,2015-05-30 00:02:00,
2015-05-29 20:07:00,71.4,50.7,29.68,ESE,112,0.0,0.0,48,0.00,,---,0.00,VWS V15.00,2015-05-30 00:07:00,
2015-05-29 20:12:00,70.9,50.2,29.68,ESE,112,0.0,0.0,48,0.00,,---,0.00,VWS V15.00,2015-05-30 00:12:00,
2015-05-29 20:18:00,70.3,50.3,29.68,ESE,112,0.0,0.0,49,0.00,,---,0.00,VWS V15.00,2015-05-30 00:18:00,
2015-05-29 20:23:00,70.0,50.0,29.68,SSE,158,0.0,1.3,49,0.00,,---,0.00,VWS V15.00,2015-05-30 00:23:00,
2015-05-29 20:28:00,69.6,50.2,29.68,SSE,158,0.0,0.0,50,0.00,,---,0.00,VWS V15.00,2015-05-30 00:28:00,
2015-05-29 20:34:00,69.3,50.4,29.68,SSE,158,0.0,0.0,51,0.00,,---,0.00,VWS V15.00,2015-05-30 00:34:00,
2015-05-29 20:39:00,68.9,50.6,29.68,SSE,158,0.0,0.0,52,0.00,,---,0.00,VWS V15.00,2015-05-30 00:39:00,
2015-05-29 20:44:00,68.7,49.9,29.68,ESE,112,0.0,0.0,51,0.00,,---,0.00,VWS V15.00,2015-05-30 00:44:00,
2015-05-29 20:49:00,68.4,50.1,29.68,ESE,112,0.0,0.0,52,0.00,,---,0.00,VWS V15.00,2015-05-30 00:49:00,
2015-05-29 20:54:00,68.0,49.7,29.68,ESE,112,0.0,0.0,52,0.00,,---,0.00,VWS V15.00,2015-05-30 00:54:00,
2015-05-29 21:00:00,67.8,50.6,29.68,ESE,112,0.0,0.0,54,0.00,,---,0.00,VWS V15.00,2015-05-30 01:00:00,
2015-05-29 21:05:00,67.5,50.2,29.68,ESE,112,0.0,0.0,54,0.00,,---,0.00,VWS V15.00,2015-05-30 01:05:00,
2015-05-29 21:10:00,67.1,50.4,29.68,ESE,112,0.0,0.0,55,0.00,,---,0.00,VWS V15.00,2015-05-30 01:10:00,
2015-05-29 21:15:00,66.9,50.7,29.68,ESE,112,0.0,0.0,56,0.00,,---,0.00,VWS V15.00,2015-05-30 01:15:00,
2015-05-29 21:21:00,66.6,50.4,29.68,ESE,112,0.0,0.0,56,0.00,,---,0.00,VWS V15.00,2015-05-30 01:21:00,
2015-05-29 21:26:00,66.2,50.1,29.68,ESE,112,0.0,0.0,56,0.00,,---,0.00,VWS V15.00,2015-05-30 01:26:00,
2015-05-29 21:31:00,66.0,50.8,29.68,ESE,112,0.0,0.0,58,0.00,,---,0.00,VWS V15.00,2015-05-30 01:31:00,
2015-05-29 21:36:00,65.7,50.5,29.68,ESE,112,0.0,0.0,58,0.00,,---,0.00,VWS V15.00,2015-05-30 01:36:00,
2015-05-29 21:42:00,65.5,50.8,29.68,ESE,112,0.0,0.0,59,0.00,,---,0.00,VWS V15.00,2015-05-30 01:42:00,
2015-05-29 21:47:00,65.1,50.9,29.68,ESE,112,0.0,0.0,60,0.00,,---,0.00,VWS V15.00,2015-05-30 01:47:00,
2015-05-29 21:52:00,65.1,50.9,29.68,ESE,112,0.0,0.0,60,0.00,,---,0.00,VWS V15.00,2015-05-30 01:52:00,
2015-05-29 21:58:00,64.8,50.6,29.68,SSE,158,0.0,2.0,60,0.00,,---,0.00,VWS V15.00,2015-05-30 01:58:00,
2015-05-29 22:03:00,64.4,50.7,29.68,SSE,158,0.0,0.0,61,0.00,,---,0.00,VWS V15.00,2015-05-30 02:03:00,
2015-05-29 22:08:00,64.2,50.9,29.68,SSE,158,0.0,0.0,62,0.00,,---,0.00,VWS V15.00,2015-05-30 02:08:00,
2015-05-29 22:13:00,64.0,50.8,29.68,SSE,158,0.0,0.0,62,0.00,,---,0.00,VWS V15.00,2015-05-30 02:13:00,
2015-05-29 22:18:00,63.7,50.9,29.68,SSE,158,0.0,0.0,63,0.00,,---,0.00,VWS V15.00,2015-05-30 02:18:00,
2015-05-29 22:24:00,63.5,51.1,29.71,SSE,158,0.0,0.0,64,0.00,,---,0.00,VWS V15.00,2015-05-30 02:24:00,
2015-05-29 22:29:00,63.3,51.4,29.71,SSE,158,0.0,0.0,65,0.00,,---,0.00,VWS V15.00,2015-05-30 02:29:00,
2015-05-29 22:34:00,63.1,51.2,29.71,SSE,158,0.0,0.0,65,0.00,,---,0.00,VWS V15.00,2015-05-30 02:34:00,
2015-05-29 22:39:00,63.1,51.2,29.71,SSE,158,0.0,0.0,65,0.00,,---,0.00,VWS V15.00,2015-05-30 02:39:00,
2015-05-29 22:45:00,62.8,50.8,29.71,SSE,158,0.0,0.0,65,0.00,,---,0.00,VWS V15.00,2015-05-30 02:45:00,
2015-05-29 22:50:00,62.6,51.1,29.71,SSE,158,0.0,0.0,66,0.00,,---,0.00,VWS V15.00,2015-05-30 02:50:00,
2015-05-29 22:55:00,62.4,51.3,29.71,SSE,158,0.0,0.0,67,0.00,,---,0.00,VWS V15.00,2015-05-30 02:55:00,